This is the latest recevied weather packets stored in our database for station/object CQ0XVC-11. If no packets are shown the sender has not sent any weather packets the latest 10 day(s).
| Time | Temp. | Humidity | Pressure | Rain* | Wind** | Luminosity | Snow |
|---|---|---|---|---|---|---|---|
| 1778082440 | 18.33° C | 32% | 997.7 hPa | 0 mm | - | - | - |
| 1778082408 | 18.33° C | 32% | 997.7 hPa | 0 mm | - | - | - |
| 1778082144 | 18.89° C | 27% | 997.8 hPa | 0 mm | - | - | - |
| 1778082105 | 18.89° C | 27% | 997.8 hPa | 0 mm | - | - | - |
| 1778081803 | 19.44° C | 26% | 997.7 hPa | 0 mm | - | - | - |
| 1778081501 | 20° C | 26% | 997.7 hPa | 0 mm | - | - | - |
| 1778081231 | 20° C | 26% | 997.7 hPa | 0 mm | - | - | - |
| 1778081199 | 20° C | 26% | 997.7 hPa | 0 mm | - | - | - |
| 1778080896 | 20° C | 27% | 997.8 hPa | 0 mm | - | - | - |
| 1778080595 | 20° C | 27% | 997.8 hPa | 0 mm | - | - | - |
| 1778080342 | 19.44° C | 28% | 997.9 hPa | 0 mm | - | - | - |
| 1778080292 | 19.44° C | 28% | 997.9 hPa | 0 mm | - | - | - |
| 1778079990 | 19.44° C | 26% | 998.1 hPa | 0 mm | - | - | - |
| 1778079687 | 20° C | 25% | 998 hPa | 0 mm | - | - | - |
| 1778079386 | 20.56° C | 25% | 998.2 hPa | 0 mm | - | - | - |
| 1778079083 | 20.56° C | 27% | 998.2 hPa | 0 mm | - | - | - |
| 1778078781 | 20.56° C | 27% | 998.3 hPa | 0 mm | - | - | - |
| 1778078479 | 20° C | 27% | 998.3 hPa | 0 mm | - | - | - |
| 1778078177 | 20° C | 26% | 998.5 hPa | 0 mm | - | - | - |
| 1778077874 | 20° C | 27% | 998.5 hPa | 0 mm | - | - | - |
| 1778077613 | 20° C | 26% | 998.5 hPa | 0 mm | - | - | - |
| 1778077573 | 20° C | 26% | 998.5 hPa | 0 mm | - | - | - |
| 1778077270 | 19.44° C | 27% | 998.6 hPa | 0 mm | - | - | - |
| 1778076968 | 19.44° C | 26% | 998.7 hPa | 0 mm | - | - | - |
| 1778076666 | 19.44° C | 28% | 998.8 hPa | 0 mm | - | - | - |
* Rain since midnight (hover to see other rain measurements)
** Current wind speed in m/s (hover to see current wind gust speed)